RH
11 19 21 23 31 39 42 50 55 59 51 42 51 54 44 37 39 40 38 40 42 45 47 45 40 39 42 46 48 47 47 47 45 46 42 39 41 48 53 71 74 79 83 75
10 14 15 21 29 34 44 46 44 42 38 35 45 49 49 44 36 34 36 39 40 43 46 48 46 46 43 44 47 44 48 48 44 41 36 37 43 58 51 73 69 76 79 61
9 9 15 20 28 33 40 44 41 36 36 34 41 56 69 47 48 43 35 34 40 39 41 47 50 47 46 43 44 39 42 46 46 43 42 42 42 44 55 41 62 66 72 66
8 9 14 20 20 27 34 43 43 43 37 32 37 59 63 48 44 44 43 37 39 39 38 41 49 47 48 48 45 46 42 41 41 44 47 47 45 43 43 50 64 67 65 67
7 9 13 18 18 20 24 32 40 33 33 29 28 44 48 50 46 42 44 39 37 36 37 33 36 41 39 42 46 51 46 45 45 45 47 47 45 46 55 55 60 63 66 68
8 8 12 14 15 17 19 24 28 29 29 26 20 36 43 42 48 44 39 32 34 38 35 33 33 42 39 42 44 46 52 47 49 47 47 47 48 48 54 58 60 62 60 63
8 8 10 10 12 12 15 19 28 29 29 28 31 39 40 33 29 29 30 27 34 37 37 30 32 39 44 40 39 40 43 47 48 48 49 45 44 46 56 59 60 59 58 64
10 10 9 8 8 9 12 14 22 25 26 26 29 33 29 25 28 30 28 27 34 38 34 33 34 42 48 47 47 46 39 42 47 47 48 47 53 50 52 56 57 49 52 64
10 10 9 8 7 7 8 9 12 18 18 20 25 28 27 28 29 33 34 37 44 38 33 39 38 44 50 51 51 45 43 41 43 42 43 45 45 53 50 50 49 51 54 61
9 12 11 12 11 9 7 8 12 16 15 17 19 28 31 28 30 35 35 43 45 41 30 39 39 41 44 52 52 50 48 45 43 39 40 43 48 54 52 55 56 55 57 57
9 11 12 13 11 11 9 7 9 11 14 15 18 24 20 27 27 33 41 42 41 48 34 40 43 41 43 54 58 56 46 48 38 38 39 48 54 67 60 53 55 55 56 59
12 11 14 13 11 11 11 9 8 14 15 16 16 20 22 22 26 33 36 41 38 45 46 56 56 50 40 49 61 62 48 44 34 36 42 48 58 57 57 57 55 55 53 55
15 14 14 14 13 12 12 10 9 9 9 12 16 18 17 19 23 27 33 31 38 45 35 37 45 54 44 48 57 63 50 48 32 41 45 48 54 51 50 53 52 54 55 52
15 16 14 14 15 13 13 12 9 10 12 12 13 15 21 21 21 22 26 34 35 43 42 44 38 49 47 50 56 58 52 36 38 45 48 51 53 54 49 49 55 59 58 58
14 17 16 12 13 12 14 13 12 9 10 12 12 17 20 25 29 29 27 31 38 35 34 36 37 44 46 47 51 48 41 41 45 48 51 52 50 45 40 47 53 50 53 59
12 15 16 15 14 14 15 14 12 12 10 10 11 18 21 20 22 29 25 27 25 29 31 34 34 36 38 40 41 42 46 44 47 49 48 40 36 37 37 34 39 44 46 50
20 14 18 18 16 15 17 14 14 14 12 9 11 20 24 25 28 27 24 21 22 25 27 29 32 33 34 36 41 41 47 50 47 43 39 36 31 34 39 42 47 55 52 43
33 34 20 20 20 23 17 14 13 14 14 11 14 22 26 27 25 26 30 25 26 25 29 30 32 36 37 39 42 47 44 42 41 40 30 23 24 24 24 23 21 19 20 21
30 32 28 24 25 20 16 14 18 23 22 18 23 27 30 30 31 43 39 47 35 27 31 31 31 34 36 42 47 49 41 38 38 29 25 17 19 21 24 27 31 33 31 32
25 32 32 27 24 26 21 19 24 23 36 22 23 28 31 28 39 48 45 59 61 44 34 34 34 34 39 43 41 37 35 33 34 33 34 32 34 34 35 36 35 35 35 36
45 37 33 28 26 24 26 28 24 31 31 32 26 23 23 33 38 41 32 56 80 64 62 38 39 39 39 42 38 38 40 40 41 41 41 38 37 37 39 40 39 39 39 40
45 43 36 31 29 28 26 26 26 28 32 33 33 30 30 33 39 38 40 58 59 84 76 49 45 40 40 40 43 45 43 45 45 43 45 43 42 41 45 46 44 45 46 45
48 47 47 40 47 42 36 29 27 30 29 36 32 32 30 36 41 40 28 41 73 79 69 50 47 47 42 41 43 45 44 44 47 50 50 49 47 45 44 44 48 49 47 43
44 44 42 40 48 47 48 35 29 25 31 33 33 30 33 32 34 30 26 43 56 56 57 49 50 49 46 48 52 59 57 57 58 55 53 54 55 49 50 52 52 48 44 40
50 46 42 45 57 59 56 40 32 30 37 35 34 33 32 34 40 44 44 55 62 62 56 49 52 61 59 57 57 59 61 64 77 67 59 53 51 54 53 52 48 45 43 38
47 51 49 50 57 55 46 41 42 44 40 32 27 29 38 50 47 52 47 65 62 54 53 57 66 62 61 78 79 72 66 61 61 60 55 54 53 52 52 46 44 40 35 37